Location: Aalen
(48.8330°N, 10.1000°E)
Time: 19:29:44
(UTC+02:00)

CAS-6 - Pass Details

Date: 01 April 2023
Orbit: 610 x 632 km, 97.9° (Epoch: 04 June)

Event Time Altitude Azimuth Distance (km) Brightness Sun altitude
Exits shadow 21:59:48 14° 51° (NE) 1,753 ? -20.6°
Drops below altitude 10° 22:01:40 10° 26° (NNE) 2,007 ? -20.9°
Sets 22:04:48 0° 2° (N) 2,925 ? -21.3°
